"read_dt","SO2 (ppb)","flags","PMT voltage (V)","lamp voltage (V)","lamp intensity (Hz)","internal temp (C)","react chamber temp (C)","sample flow (l/min)","pres (mmHg)","SO2 bkg (ppb)","SO2 coefficient"
2015-02-09 00:00:00,2582E-3,5C000000,-0724,0836,11909,026.7,045.4,0.457,742.9,01.18,0.508
2015-02-09 00:01:00,2504E-3,5C000000,-0724,0837,12064,026.7,045.4,0.457,742.8,01.18,0.508
2015-02-09 00:02:00,2554E-3,5C000000,-0724,0838,12273,026.7,045.4,0.457,742.9,01.18,0.508
2015-02-09 00:03:00,2505E-3,5C000000,-0724,0837,12205,026.7,045.4,0.457,742.9,01.18,0.508
2015-02-09 00:04:00,2434E-3,5C000000,-0724,0838,12001,026.7,045.4,0.457,742.9,01.18,0.508
2015-02-09 00:05:00,2389E-3,5C000000,-0724,0837,12044,026.7,045.4,0.457,742.8,01.18,0.508
2015-02-09 00:06:00,2471E-3,5C000000,-0724,0838,12132,026.7,045.4,0.457,742.9,01.18,0.508
2015-02-09 00:07:00,2541E-3,5C000000,-0724,0837,12180,026.7,045.4,0.457,742.8,01.18,0.508
2015-02-09 00:08:00,2297E-3,5C000000,-0724,0837,12172,026.7,045.4,0.457,742.8,01.18,0.508
2015-02-09 00:09:00,2506E-3,5C000000,-0724,0837,12124,026.7,045.4,0.457,742.8,01.18,0.508
2015-02-09 00:10:00,2555E-3,5C000000,-0724,0838,12210,026.7,045.4,0.457,742.8,01.18,0.508
2015-02-09 00:11:00,2567E-3,5C000000,-0724,0837,12291,026.7,045.4,0.457,742.8,01.18,0.508
2015-02-09 00:12:00,2539E-3,5C000000,-0724,0837,12105,026.7,045.4,0.457,742.8,01.18,0.508
2015-02-09 00:13:00,2296E-3,5C000000,-0724,0837,12143,026.7,045.4,0.457,742.8,01.18,0.508
2015-02-09 00:14:00,2462E-3,5C000000,-0724,0837,12196,026.7,045.4,0.457,742.8,01.18,0.508
2015-02-09 00:15:00,2362E-3,5C000000,-0724,0837,12182,026.7,045.4,0.457,742.8,01.18,0.508
2015-02-09 00:16:00,2608E-3,5C000000,-0724,0837,12363,026.7,045.4,0.457,742.8,01.18,0.508
2015-02-09 00:17:00,2578E-3,5C000000,-0724,0837,12115,026.7,045.4,0.457,742.8,01.18,0.508
2015-02-09 00:18:00,2401E-3,5C000000,-0724,0837,12186,026.7,045.4,0.457,742.8,01.18,0.508
2015-02-09 00:19:00,2407E-3,5C000000,-0724,0837,12120,026.7,045.4,0.457,742.7,01.18,0.508
2015-02-09 00:20:00,2403E-3,5C000000,-0724,0837,12176,026.7,045.4,0.457,742.7,01.18,0.508
2015-02-09 00:21:00,2473E-3,5C000000,-0724,0836,12118,026.7,045.4,0.457,742.7,01.18,0.508
2015-02-09 00:22:00,2567E-3,5C000000,-0724,0837,12079,026.7,045.4,0.457,742.7,01.18,0.508
2015-02-09 00:23:00,2373E-3,5C000000,-0724,0837,12031,026.7,045.4,0.457,742.7,01.18,0.508
2015-02-09 00:24:00,2546E-3,5C000000,-0724,0837,12205,026.8,045.4,0.457,742.7,01.18,0.508
2015-02-09 00:25:00,2597E-3,5C000000,-0724,0837,12122,026.8,045.4,0.457,742.6,01.18,0.508
2015-02-09 00:26:00,2310E-3,5C000000,-0724,0837,12127,026.8,045.4,0.457,742.6,01.18,0.508
2015-02-09 00:27:00,2462E-3,5C000000,-0724,0837,12112,026.8,045.4,0.457,742.6,01.18,0.508
2015-02-09 00:28:00,2459E-3,5C000000,-0724,0837,11795,026.8,045.4,0.457,742.5,01.18,0.508
2015-02-09 00:29:00,2377E-3,5C000000,-0724,0837,12168,026.8,045.4,0.457,742.5,01.18,0.508
2015-02-09 00:30:00,2499E-3,5C000000,-0724,0837,11898,026.8,045.4,0.457,742.5,01.18,0.508
2015-02-09 00:31:00,2497E-3,5C000000,-0724,0837,12310,026.8,045.4,0.457,742.6,01.18,0.508
2015-02-09 00:32:00,2474E-3,5C000000,-0724,0837,12226,026.8,045.4,0.457,742.6,01.18,0.508
2015-02-09 00:33:00,2505E-3,5C000000,-0724,0838,12030,026.8,045.4,0.457,742.6,01.18,0.508
2015-02-09 00:34:00,2371E-3,5C000000,-0724,0837,11891,026.8,045.4,0.457,742.6,01.18,0.508
2015-02-09 00:35:00,2542E-3,5C000000,-0724,0838,12088,026.8,045.4,0.457,742.6,01.18,0.508
2015-02-09 00:36:00,2443E-3,5C000000,-0724,0837,12126,026.8,045.4,0.457,742.7,01.18,0.508
2015-02-09 00:37:00,2425E-3,5C000000,-0724,0837,12049,026.8,045.4,0.457,742.7,01.18,0.508
2015-02-09 00:38:00,2500E-3,5C000000,-0724,0837,12197,026.8,045.4,0.457,742.7,01.18,0.508
2015-02-09 00:39:00,2483E-3,5C000000,-0724,0837,11982,026.8,045.4,0.456,742.7,01.18,0.508
2015-02-09 00:40:00,2533E-3,5C000000,-0724,0837,12152,026.8,045.4,0.457,742.7,01.18,0.508
2015-02-09 00:41:00,2282E-3,5C000000,-0724,0838,12188,026.8,045.4,0.457,742.7,01.18,0.508
2015-02-09 00:42:00,2458E-3,5C000000,-0724,0838,12183,026.8,045.4,0.457,742.7,01.18,0.508
2015-02-09 00:43:00,2627E-3,5C000000,-0724,0838,12199,026.8,045.4,0.457,742.7,01.18,0.508
2015-02-09 00:44:00,2232E-3,5C000000,-0724,0838,12092,026.8,045.4,0.457,742.7,01.18,0.508
2015-02-09 00:45:00,2512E-3,5C000000,-0724,0838,12176,026.8,045.4,0.456,742.7,01.18,0.508
2015-02-09 00:46:00,2473E-3,5C000000,-0724,0837,12091,026.8,045.4,0.457,742.7,01.18,0.508
2015-02-09 00:47:00,2351E-3,5C000000,-0724,0837,12032,026.8,045.4,0.457,742.7,01.18,0.508
2015-02-09 00:48:00,2400E-3,5C000000,-0724,0838,12208,026.9,045.4,0.456,742.7,01.18,0.508
2015-02-09 00:49:00,2268E-3,5C000000,-0724,0837,12171,026.9,045.4,0.457,742.7,01.18,0.508
2015-02-09 00:50:00,2491E-3,5C000000,-0724,0836,12173,026.9,045.4,0.457,742.8,01.18,0.508
2015-02-09 00:51:00,2497E-3,5C000000,-0724,0837,12125,026.9,045.4,0.456,742.7,01.18,0.508
2015-02-09 00:52:00,2529E-3,5C000000,-0724,0837,12213,026.9,045.4,0.457,742.7,01.18,0.508
2015-02-09 00:53:00,2274E-3,5C000000,-0724,0837,11985,026.9,045.4,0.457,742.8,01.18,0.508
2015-02-09 00:54:00,2660E-3,5C000000,-0724,0838,12224,026.9,045.4,0.457,742.7,01.18,0.508
2015-02-09 00:55:00,2375E-3,5C000000,-0724,0837,12243,026.9,045.4,0.456,742.7,01.18,0.508
2015-02-09 00:56:00,2424E-3,5C000000,-0724,0837,12088,026.9,045.4,0.457,742.7,01.18,0.508
2015-02-09 00:57:00,2376E-3,5C000000,-0724,0838,12069,026.9,045.4,0.456,742.7,01.18,0.508
2015-02-09 00:58:00,2294E-3,5C000000,-0724,0837,12025,026.9,045.4,0.457,742.7,01.18,0.508
2015-02-09 00:59:00,2310E-3,5C000000,-0724,0838,12303,026.9,045.4,0.457,742.7,01.18,0.508
2015-02-09 01:00:00,2524E-3,5C000000,-0724,0838,12164,026.9,045.4,0.456,742.7,01.18,0.508
2015-02-09 01:01:00,2369E-3,5C000000,-0724,0838,12039,026.9,045.4,0.457,742.7,01.18,0.508
2015-02-09 01:02:00,2253E-3,5C000000,-0724,0836,12072,026.9,045.4,0.456,742.6,01.18,0.508
2015-02-09 01:03:00,2329E-3,5C000000,-0724,0836,11888,026.9,045.4,0.457,742.6,01.18,0.508
2015-02-09 01:04:00,2440E-3,5C000000,-0724,0837,12136,026.9,045.4,0.456,742.6,01.18,0.508
2015-02-09 01:05:00,2419E-3,5C000000,-0724,0837,12120,026.9,045.4,0.457,742.6,01.18,0.508
2015-02-09 01:06:00,2375E-3,5C000000,-0724,0837,11950,026.9,045.4,0.457,742.5,01.18,0.508
2015-02-09 01:07:00,2499E-3,5C000000,-0724,0838,12133,026.9,045.4,0.456,742.6,01.18,0.508
2015-02-09 01:08:00,2449E-3,5C000000,-0724,0838,12174,026.9,045.4,0.457,742.5,01.18,0.508
2015-02-09 01:09:00,2576E-3,5C000000,-0724,0837,12032,026.9,045.4,0.456,742.5,01.18,0.508
2015-02-09 01:10:00,2746E-3,5C000000,-0724,0838,12260,026.9,045.4,0.457,742.5,01.18,0.508
2015-02-09 01:11:00,2444E-3,5C000000,-0724,0837,11944,026.9,045.4,0.456,742.5,01.18,0.508
2015-02-09 01:12:00,2369E-3,5C000000,-0724,0837,12114,026.9,045.4,0.457,742.4,01.18,0.508
2015-02-09 01:13:00,2447E-3,5C000000,-0724,0837,12147,026.9,045.4,0.456,742.5,01.18,0.508
2015-02-09 01:14:00,2477E-3,5C000000,-0724,0838,12177,026.9,045.4,0.457,742.4,01.18,0.508
2015-02-09 01:15:00,2372E-3,5C000000,-0724,0837,12161,026.9,045.4,0.456,742.4,01.18,0.508
2015-02-09 01:16:00,2444E-3,5C000000,-0724,0837,12139,026.9,045.4,0.457,742.4,01.18,0.508
2015-02-09 01:17:00,2520E-3,5C000000,-0724,0837,12196,026.9,045.4,0.456,742.4,01.18,0.508
2015-02-09 01:18:00,2438E-3,5C000000,-0724,0838,11815,026.9,045.4,0.457,742.4,01.18,0.508
2015-02-09 01:19:00,2358E-3,5C000000,-0724,0836,12099,026.9,045.4,0.456,742.4,01.18,0.508
2015-02-09 01:20:00,2405E-3,5C000000,-0724,0837,12213,026.9,045.4,0.457,742.4,01.18,0.508
2015-02-09 01:21:00,2450E-3,5C000000,-0724,0836,11951,026.9,045.4,0.456,742.4,01.18,0.508
2015-02-09 01:22:00,2514E-3,5C000000,-0724,0837,12203,027.0,045.4,0.457,742.4,01.18,0.508
2015-02-09 01:23:00,2355E-3,5C000000,-0724,0837,12096,026.9,045.4,0.456,742.4,01.18,0.508
2015-02-09 01:24:00,2480E-3,5C000000,-0724,0838,12212,026.9,045.4,0.457,742.4,01.18,0.508
2015-02-09 01:25:00,2287E-3,5C000000,-0724,0837,12110,026.9,045.4,0.456,742.4,01.18,0.508
2015-02-09 01:26:00,2376E-3,5C000000,-0724,0837,12264,026.9,045.4,0.457,742.4,01.18,0.508
2015-02-09 01:27:00,2491E-3,5C000000,-0724,0837,12054,026.9,045.4,0.456,742.4,01.18,0.508
2015-02-09 01:28:00,2330E-3,5C000000,-0724,0838,12203,026.9,045.4,0.456,742.4,01.18,0.508
2015-02-09 01:29:00,2354E-3,5C000000,-0724,0837,12183,027.0,045.4,0.456,742.4,01.18,0.508
2015-02-09 01:30:00,2371E-3,5C000000,-0724,0837,12240,026.9,045.4,0.456,742.4,01.18,0.508
2015-02-09 01:31:00,2373E-3,5C000000,-0724,0837,12058,026.9,045.4,0.456,742.4,01.18,0.508
2015-02-09 01:32:00,2322E-3,5C000000,-0724,0837,12019,026.9,045.4,0.456,742.4,01.18,0.508
2015-02-09 01:33:00,2392E-3,5C000000,-0724,0837,12199,026.9,045.4,0.456,742.4,01.18,0.508
2015-02-09 01:34:00,2363E-3,5C000000,-0724,0837,12135,026.9,045.4,0.456,742.4,01.18,0.508
2015-02-09 01:35:00,2359E-3,5C000000,-0724,0837,12049,026.9,045.4,0.456,742.4,01.18,0.508
2015-02-09 01:36:00,2495E-3,5C000000,-0724,0837,12076,026.9,045.4,0.456,742.4,01.18,0.508
2015-02-09 01:37:00,2444E-3,5C000000,-0724,0837,11860,026.9,045.4,0.456,742.3,01.18,0.508
2015-02-09 01:38:00,2413E-3,5C000000,-0724,0837,12092,027.0,045.4,0.456,742.3,01.18,0.508
2015-02-09 01:39:00,2296E-3,5C000000,-0724,0837,12090,026.9,045.4,0.456,742.3,01.18,0.508
2015-02-09 01:40:00,2369E-3,5C000000,-0724,0837,12188,026.9,045.4,0.456,742.3,01.18,0.508
2015-02-09 01:41:00,2312E-3,5C000000,-0724,0839,12014,026.9,045.4,0.456,742.3,01.18,0.508
2015-02-09 01:42:00,2342E-3,5C000000,-0724,0838,12209,026.9,045.4,0.456,742.3,01.18,0.508
2015-02-09 01:43:00,2576E-3,5C000000,-0724,0837,12216,027.0,045.4,0.456,742.2,01.18,0.508
2015-02-09 01:44:00,2177E-3,5C000000,-0724,0837,12069,027.0,045.4,0.456,742.3,01.18,0.508
2015-02-09 01:45:00,2310E-3,5C000000,-0724,0838,12219,027.0,045.4,0.456,742.3,01.18,0.508
2015-02-09 01:46:00,2467E-3,5C000000,-0724,0836,11966,027.0,045.4,0.456,742.2,01.18,0.508
2015-02-09 01:47:00,2497E-3,5C000000,-0724,0837,12232,027.0,045.4,0.456,742.2,01.18,0.508
2015-02-09 01:48:00,2295E-3,5C000000,-0724,0837,12030,027.0,045.4,0.456,742.2,01.18,0.508
2015-02-09 01:49:00,2358E-3,5C000000,-0724,0837,11991,027.0,045.4,0.456,742.2,01.18,0.508
2015-02-09 01:50:00,2447E-3,5C000000,-0724,0837,12338,027.0,045.4,0.456,742.2,01.18,0.508
2015-02-09 01:51:00,2241E-3,5C000000,-0724,0837,12138,027.0,045.4,0.456,742.2,01.18,0.508
2015-02-09 01:52:00,2539E-3,5C000000,-0724,0837,12194,027.0,045.4,0.456,742.2,01.18,0.508
2015-02-09 01:53:00,2408E-3,5C000000,-0724,0838,12351,027.0,045.4,0.456,742.2,01.18,0.508
2015-02-09 01:54:00,2347E-3,5C000000,-0724,0836,11987,027.0,045.4,0.456,742.2,01.18,0.508
2015-02-09 01:55:00,2424E-3,5C000000,-0724,0838,12108,027.0,045.4,0.456,742.2,01.18,0.508
2015-02-09 01:56:00,2399E-3,5C000000,-0724,0837,12160,027.0,045.4,0.456,742.1,01.18,0.508
2015-02-09 01:57:00,2358E-3,5C000000,-0724,0837,12082,027.0,045.4,0.456,742.1,01.18,0.508
2015-02-09 01:58:00,2373E-3,5C000000,-0724,0837,12038,027.0,045.4,0.456,742.1,01.18,0.508
2015-02-09 01:59:00,2341E-3,5C000000,-0724,0838,12130,027.0,045.4,0.456,742.0,01.18,0.508
2015-02-09 02:00:00,2367E-3,5C000000,-0724,0836,12107,027.0,045.4,0.456,742.0,01.18,0.508
2015-02-09 02:01:00,2302E-3,5C000000,-0724,0837,12047,027.0,045.4,0.456,742.0,01.18,0.508
2015-02-09 02:02:00,2385E-3,5C000000,-0724,0837,12143,027.0,045.4,0.456,742.0,01.18,0.508
2015-02-09 02:03:00,2443E-3,5C000000,-0724,0837,12040,027.0,045.4,0.456,742.0,01.18,0.508
2015-02-09 02:04:00,2390E-3,5C000000,-0724,0836,12165,027.0,045.4,0.456,742.1,01.18,0.508
2015-02-09 02:05:00,2326E-3,5C000000,-0724,0837,12023,027.0,045.4,0.456,742.1,01.18,0.508
2015-02-09 02:06:00,2246E-3,5C000000,-0724,0837,12101,027.0,045.4,0.456,742.1,01.18,0.508
2015-02-09 02:07:00,2383E-3,5C000000,-0724,0838,12175,027.0,045.4,0.456,742.1,01.18,0.508
2015-02-09 02:08:00,2341E-3,5C000000,-0724,0838,12121,027.0,045.4,0.456,742.2,01.18,0.508
2015-02-09 02:09:00,2171E-3,5C000000,-0724,0837,12068,027.0,045.4,0.456,742.2,01.18,0.508
2015-02-09 02:10:00,2338E-3,5C000000,-0724,0838,12286,027.0,045.4,0.455,742.2,01.18,0.508
2015-02-09 02:11:00,2305E-3,5C000000,-0724,0837,12160,027.1,045.4,0.456,742.2,01.18,0.508
2015-02-09 02:12:00,2342E-3,5C000000,-0724,0838,12153,027.0,045.4,0.456,742.1,01.18,0.508
2015-02-09 02:13:00,2290E-3,5C000000,-0724,0837,12059,027.1,045.4,0.456,742.1,01.18,0.508
2015-02-09 02:14:00,2281E-3,5C000000,-0724,0837,12179,027.1,045.4,0.456,742.1,01.18,0.508
2015-02-09 02:15:00,2304E-3,5C000000,-0724,0837,11926,027.1,045.4,0.455,742.0,01.18,0.508
2015-02-09 02:16:00,2572E-3,5C000000,-0724,0837,12255,027.1,045.4,0.456,742.0,01.18,0.508
2015-02-09 02:17:00,2325E-3,5C000000,-0724,0838,11916,027.1,045.4,0.455,742.0,01.18,0.508
2015-02-09 02:18:00,2383E-3,5C000000,-0724,0837,12159,027.1,045.4,0.456,742.0,01.18,0.508
2015-02-09 02:19:00,2218E-3,5C000000,-0724,0838,12098,027.1,045.4,0.456,741.9,01.18,0.508
2015-02-09 02:20:00,2259E-3,5C000000,-0724,0838,12086,027.1,045.4,0.455,741.9,01.18,0.508
2015-02-09 02:21:00,2302E-3,5C000000,-0724,0837,12138,027.1,045.4,0.456,741.9,01.18,0.508
2015-02-09 02:22:00,2397E-3,5C000000,-0724,0837,12103,027.1,045.4,0.455,741.9,01.18,0.508
2015-02-09 02:23:00,2334E-3,5C000000,-0724,0837,12240,027.1,045.4,0.456,741.9,01.18,0.508
2015-02-09 02:24:00,2121E-3,5C000000,-0724,0837,11964,027.1,045.4,0.456,741.9,01.18,0.508
2015-02-09 02:25:00,2299E-3,5C000000,-0724,0837,12010,027.1,045.4,0.456,741.9,01.18,0.508
2015-02-09 02:26:00,2361E-3,5C000000,-0724,0838,12115,027.1,045.4,0.456,741.9,01.18,0.508
2015-02-09 02:27:00,2217E-3,5C000000,-0724,0837,12239,027.1,045.4,0.455,741.9,01.18,0.508
2015-02-09 02:28:00,2314E-3,5C000000,-0724,0837,12246,027.1,045.4,0.456,741.8,01.18,0.508
2015-02-09 02:29:00,2234E-3,5C000000,-0724,0836,12145,027.1,045.4,0.456,741.8,01.18,0.508
2015-02-09 02:30:00,2430E-3,5C000000,-0724,0837,12291,027.1,045.4,0.456,741.8,01.18,0.508
2015-02-09 02:31:00,2305E-3,5C000000,-0724,0837,12057,027.2,045.4,0.455,741.8,01.18,0.508
2015-02-09 02:32:00,2457E-3,5C000000,-0724,0837,12030,027.1,045.4,0.456,741.7,01.18,0.508
2015-02-09 02:33:00,2261E-3,5C000000,-0724,0837,12293,027.1,045.4,0.455,741.7,01.18,0.508
2015-02-09 02:34:00,2340E-3,5C000000,-0724,0838,12144,027.1,045.4,0.455,741.7,01.18,0.508
2015-02-09 02:35:00,2359E-3,5C000000,-0724,0838,12128,027.1,045.4,0.456,741.7,01.18,0.508
2015-02-09 02:36:00,2350E-3,5C000000,-0724,0838,11955,027.1,045.4,0.455,741.6,01.18,0.508
2015-02-09 02:37:00,2384E-3,5C000000,-0724,0838,12024,027.1,045.4,0.456,741.6,01.18,0.508
2015-02-09 02:38:00,2273E-3,5C000000,-0724,0838,11950,027.1,045.4,0.455,741.6,01.18,0.508
2015-02-09 02:39:00,2364E-3,5C000000,-0724,0837,12287,027.2,045.4,0.455,741.6,01.18,0.508
2015-02-09 02:40:00,2352E-3,5C000000,-0724,0838,12138,027.1,045.4,0.456,741.7,01.18,0.508
2015-02-09 02:41:00,2355E-3,5C000000,-0724,0837,12100,027.1,045.4,0.455,741.6,01.18,0.508
2015-02-09 02:42:00,2388E-3,5C000000,-0724,0838,12155,027.1,045.4,0.455,741.6,01.18,0.508
2015-02-09 02:43:00,2260E-3,5C000000,-0724,0838,12083,027.2,045.4,0.455,741.6,01.18,0.508
2015-02-09 02:44:00,2264E-3,5C000000,-0724,0838,12195,027.2,045.4,0.455,741.6,01.18,0.508
2015-02-09 02:45:00,2298E-3,5C000000,-0724,0837,12033,027.2,045.4,0.456,741.6,01.18,0.508
2015-02-09 02:46:00,2235E-3,5C000000,-0724,0838,12028,027.2,045.4,0.455,741.6,01.18,0.508
2015-02-09 02:47:00,2281E-3,5C000000,-0724,0837,12199,027.2,045.4,0.455,741.5,01.18,0.508
2015-02-09 02:48:00,2286E-3,5C000000,-0724,0838,12047,027.2,045.4,0.455,741.4,01.18,0.508
2015-02-09 02:49:00,2217E-3,5C000000,-0724,0837,12231,027.2,045.4,0.455,741.5,01.18,0.508
2015-02-09 02:50:00,2100E-3,5C000000,-0724,0837,12191,027.2,045.4,0.455,741.5,01.18,0.508
2015-02-09 02:51:00,2260E-3,5C000000,-0724,0837,11982,027.2,045.4,0.455,741.5,01.18,0.508
2015-02-09 02:52:00,2295E-3,5C000000,-0724,0838,12087,027.2,045.4,0.455,741.4,01.18,0.508
2015-02-09 02:53:00,2202E-3,5C000000,-0724,0838,12071,027.2,045.4,0.455,741.5,01.18,0.508
2015-02-09 02:54:00,2170E-3,5C000000,-0724,0838,12101,027.2,045.4,0.455,741.4,01.18,0.508
2015-02-09 02:55:00,2123E-3,5C000000,-0724,0838,12056,027.2,045.4,0.455,741.4,01.18,0.508
2015-02-09 02:56:00,2148E-3,5C000000,-0724,0838,12096,027.2,045.4,0.455,741.4,01.18,0.508
2015-02-09 02:57:00,2236E-3,5C000000,-0724,0838,12102,027.2,045.4,0.455,741.5,01.18,0.508
2015-02-09 02:58:00,2242E-3,5C000000,-0724,0839,11958,027.2,045.4,0.455,741.4,01.18,0.508
2015-02-09 02:59:00,2205E-3,5C000000,-0724,0839,12059,027.2,045.4,0.455,741.5,01.18,0.508
2015-02-09 03:00:00,2100E-3,5C000000,-0724,0838,12098,027.2,045.4,0.455,741.4,01.18,0.508
2015-02-09 03:01:00,2261E-3,5C000000,-0724,0838,12189,027.2,045.4,0.455,741.5,01.18,0.508
2015-02-09 03:02:00,2168E-3,5C000000,-0724,0838,12252,027.2,045.4,0.455,741.4,01.18,0.508
2015-02-09 03:03:00,2254E-3,5C000000,-0724,0838,12089,027.2,045.4,0.455,741.4,01.18,0.508
2015-02-09 03:04:00,2080E-3,5C000000,-0724,0837,12084,027.2,045.4,0.455,741.4,01.18,0.508
2015-02-09 03:05:00,2410E-3,5C000000,-0724,0839,12102,027.2,045.4,0.455,741.4,01.18,0.508
2015-02-09 03:06:00,2406E-3,5C000000,-0724,0838,12192,027.2,045.4,0.455,741.4,01.18,0.508
2015-02-09 03:07:00,2200E-3,5C000000,-0724,0838,11956,027.2,045.4,0.455,741.4,01.18,0.508
2015-02-09 03:08:00,2308E-3,5C000000,-0724,0837,12237,027.1,045.4,0.455,741.4,01.18,0.508
2015-02-09 03:09:00,2310E-3,5C000000,-0724,0838,12023,027.2,045.4,0.455,741.4,01.18,0.508
2015-02-09 03:10:00,2265E-3,5C000000,-0724,0837,12193,027.2,045.4,0.455,741.3,01.18,0.508
2015-02-09 03:11:00,2272E-3,5C000000,-0724,0837,12027,027.2,045.4,0.455,741.3,01.18,0.508
2015-02-09 03:12:00,1988E-3,5C000000,-0724,0837,12156,027.1,045.4,0.455,741.3,01.18,0.508
2015-02-09 03:13:00,2247E-3,5C000000,-0724,0837,12031,027.2,045.4,0.455,741.3,01.18,0.508
2015-02-09 03:14:00,2272E-3,5C000000,-0724,0837,12148,027.1,045.4,0.455,741.3,01.18,0.508
2015-02-09 03:15:00,2162E-3,5C000000,-0724,0837,12290,027.2,045.4,0.455,741.3,01.18,0.508
2015-02-09 03:16:00,2172E-3,5C000000,-0724,0838,12163,027.1,045.4,0.455,741.3,01.18,0.508
2015-02-09 03:17:00,2275E-3,5C000000,-0724,0837,12306,027.2,045.4,0.455,741.3,01.18,0.508
2015-02-09 03:18:00,2302E-3,5C000000,-0724,0837,12131,027.1,045.4,0.455,741.3,01.18,0.508
2015-02-09 03:19:00,2334E-3,5C000000,-0724,0837,12015,027.2,045.4,0.455,741.3,01.18,0.508
2015-02-09 03:20:00,2297E-3,5C000000,-0724,0838,12122,027.2,045.4,0.455,741.3,01.18,0.508
2015-02-09 03:21:00,2195E-3,5C000000,-0724,0836,12048,027.2,045.4,0.455,741.2,01.18,0.508
2015-02-09 03:22:00,2139E-3,5C000000,-0724,0837,12094,027.1,045.4,0.455,741.2,01.18,0.508
2015-02-09 03:23:00,2300E-3,5C000000,-0724,0837,11947,027.1,045.4,0.455,741.3,01.18,0.508
2015-02-09 03:24:00,2261E-3,5C000000,-0724,0837,12086,027.2,045.4,0.455,741.3,01.18,0.508
2015-02-09 03:25:00,2190E-3,5C000000,-0724,0837,12166,027.2,045.4,0.455,741.2,01.18,0.508
2015-02-09 03:26:00,2260E-3,5C000000,-0724,0838,12331,027.2,045.4,0.455,741.2,01.18,0.508
2015-02-09 03:27:00,2176E-3,5C000000,-0724,0837,12163,027.2,045.4,0.455,741.3,01.18,0.508
2015-02-09 03:28:00,2206E-3,5C000000,-0724,0837,12045,027.1,045.4,0.455,741.2,01.18,0.508
2015-02-09 03:29:00,2113E-3,5C000000,-0724,0837,12145,027.1,045.4,0.455,741.2,01.18,0.508
2015-02-09 03:30:00,2144E-3,5C000000,-0724,0837,12075,027.1,045.4,0.455,741.2,01.18,0.508
2015-02-09 03:31:00,2197E-3,5C000000,-0724,0838,12141,027.1,045.4,0.455,741.3,01.18,0.508
2015-02-09 03:32:00,2200E-3,5C000000,-0724,0837,12200,027.1,045.4,0.455,741.3,01.18,0.508
2015-02-09 03:33:00,2264E-3,5C000000,-0724,0837,11999,027.1,045.4,0.455,741.3,01.18,0.508
2015-02-09 03:34:00,2258E-3,5C000000,-0724,0837,12191,027.1,045.4,0.455,741.2,01.18,0.508
2015-02-09 03:35:00,2304E-3,5C000000,-0724,0837,12226,027.1,045.4,0.455,741.3,01.18,0.508
2015-02-09 03:36:00,2356E-3,5C000000,-0724,0837,12173,027.1,045.4,0.455,741.3,01.18,0.508
2015-02-09 03:37:00,2172E-3,5C000000,-0724,0837,12206,027.1,045.4,0.455,741.3,01.18,0.508
2015-02-09 03:38:00,2291E-3,5C000000,-0724,0836,11739,027.1,045.4,0.455,741.4,01.18,0.508
2015-02-09 03:39:00,2176E-3,5C000000,-0724,0837,11997,027.1,045.4,0.455,741.3,01.18,0.508
2015-02-09 03:40:00,2316E-3,5C000000,-0724,0837,12184,027.2,045.4,0.455,741.4,01.18,0.508
2015-02-09 03:41:00,2208E-3,5C000000,-0724,0837,12091,027.2,045.4,0.455,741.4,01.18,0.508
2015-02-09 03:42:00,2267E-3,5C000000,-0724,0837,12026,027.1,045.4,0.455,741.4,01.18,0.508
2015-02-09 03:43:00,2160E-3,5C000000,-0724,0837,12254,027.1,045.4,0.455,741.4,01.18,0.508
2015-02-09 03:44:00,2209E-3,5C000000,-0724,0837,12161,027.2,045.4,0.455,741.4,01.18,0.508
2015-02-09 03:45:00,2330E-3,5C000000,-0724,0837,12067,027.1,045.4,0.455,741.4,01.18,0.508
2015-02-09 03:46:00,2261E-3,5C000000,-0724,0837,12106,027.2,045.4,0.455,741.4,01.18,0.508
2015-02-09 03:47:00,2116E-3,5C000000,-0724,0837,12217,027.1,045.4,0.455,741.4,01.18,0.508
2015-02-09 03:48:00,2163E-3,5C000000,-0724,0837,12194,027.1,045.4,0.455,741.5,01.18,0.508
2015-02-09 03:49:00,2143E-3,5C000000,-0724,0838,12249,027.1,045.4,0.455,741.4,01.18,0.508
2015-02-09 03:50:00,2062E-3,5C000000,-0724,0838,12149,027.1,045.4,0.455,741.4,01.18,0.508
2015-02-09 03:51:00,2092E-3,5C000000,-0724,0837,12027,027.1,045.4,0.455,741.4,01.18,0.508
2015-02-09 03:52:00,2183E-3,5C000000,-0724,0837,11962,027.2,045.4,0.455,741.4,01.18,0.508
2015-02-09 03:53:00,2075E-3,5C000000,-0724,0838,12205,027.2,045.4,0.455,741.4,01.18,0.508
2015-02-09 03:54:00,2225E-3,5C000000,-0724,0837,12171,027.2,045.4,0.455,741.4,01.18,0.508
2015-02-09 03:55:00,2253E-3,5C000000,-0724,0837,12221,027.2,045.4,0.455,741.2,01.18,0.508
2015-02-09 03:56:00,2040E-3,5C000000,-0724,0837,12101,027.2,045.4,0.455,741.2,01.18,0.508
2015-02-09 03:57:00,2115E-3,5C000000,-0724,0837,12118,027.2,045.4,0.455,741.2,01.18,0.508
2015-02-09 03:58:00,2187E-3,5C000000,-0724,0837,11977,027.2,045.4,0.455,741.2,01.18,0.508
2015-02-09 03:59:00,2241E-3,5C000000,-0724,0838,12060,027.2,045.4,0.455,741.0,01.18,0.508
2015-02-09 04:00:00,2238E-3,5C000000,-0724,0838,12134,027.2,045.4,0.455,741.1,01.18,0.508
2015-02-09 04:01:00,2140E-3,5C000000,-0724,0837,12160,027.2,045.4,0.455,741.1,01.18,0.508
2015-02-09 04:02:00,2066E-3,5C000000,-0724,0838,12155,027.1,045.4,0.455,741.1,01.18,0.508
2015-02-09 04:03:00,2040E-3,5C000000,-0724,0837,12195,027.1,045.4,0.455,741.1,01.18,0.508
2015-02-09 04:04:00,2238E-3,5C000000,-0724,0838,12164,027.1,045.4,0.455,741.2,01.18,0.508
2015-02-09 04:05:00,2020E-3,5C000000,-0724,0837,11900,027.1,045.4,0.455,741.2,01.18,0.508
2015-02-09 04:06:00,2018E-3,5C000000,-0724,0837,12057,027.2,045.4,0.455,741.1,01.18,0.508
2015-02-09 04:07:00,2157E-3,5C000000,-0724,0838,12180,027.1,045.4,0.454,741.2,01.18,0.508
2015-02-09 04:08:00,1943E-3,5C000000,-0724,0838,12224,027.1,045.4,0.455,741.2,01.18,0.508
2015-02-09 04:09:00,2104E-3,5C000000,-0724,0838,12166,027.1,045.4,0.455,741.1,01.18,0.508
2015-02-09 04:10:00,2172E-3,5C000000,-0724,0837,12054,027.1,045.4,0.454,741.2,01.18,0.508
2015-02-09 04:11:00,2111E-3,5C000000,-0724,0837,12077,027.1,045.4,0.455,741.0,01.18,0.508
2015-02-09 04:12:00,2119E-3,5C000000,-0724,0837,12211,027.1,045.4,0.455,741.0,01.18,0.508
2015-02-09 04:13:00,2175E-3,5C000000,-0724,0837,12060,027.1,045.4,0.454,741.1,01.18,0.508
2015-02-09 04:14:00,2063E-3,5C000000,-0724,0837,12159,027.1,045.4,0.455,741.1,01.18,0.508
2015-02-09 04:15:00,2138E-3,5C000000,-0724,0838,12248,027.1,045.4,0.455,741.1,01.18,0.508
2015-02-09 04:16:00,2103E-3,5C000000,-0724,0836,12132,027.1,045.4,0.455,741.1,01.18,0.508
2015-02-09 04:17:00,2183E-3,5C000000,-0724,0837,12243,027.1,045.4,0.455,741.1,01.18,0.508
2015-02-09 04:18:00,2138E-3,5C000000,-0724,0837,12138,027.1,045.4,0.455,741.1,01.18,0.508
2015-02-09 04:19:00,2066E-3,5C000000,-0724,0837,12381,027.1,045.4,0.454,741.0,01.18,0.508
2015-02-09 04:20:00,2241E-3,5C000000,-0724,0837,12160,027.1,045.4,0.455,741.1,01.18,0.508